Powrót do katalogu

STARLINK-35255

AktywnyŁącznośćSSO
NORAD 65602·PAYLOAD·🇺🇸 United States

Wystrzelony Sep 13, 2025 z Cape Canaveral Space Force Station

Loading…

Następne Przeloty (najbliższe 24 godziny)

TLE

ŚwieżeSource: CelesTrak SupGP

Epoka: Sep 15, 2026, 02:58 UTC

1 65602C 25207L   26258.12409722  .02402300  00000+0  10187+0 0  2589
2 65602  97.2841 320.8223 0001478  81.0696 152.7112 15.21985611    11

Śledź STARLINK-35255 w czasie rzeczywistym z AllMySat

Download on the App Store